Time,TemperatureF,DewpointF,PressureIn,WindDirection,WindDirectionDegrees,WindSpeedMPH,WindSpeedGustMPH,Humidity,HourlyPrecipIn,Conditions,Clouds,dailyrainin,SoftwareType,DateUTC
2013-04-02 00:02:00,22.5,19.2,30.27,NNW,332,0.0,18.0,87,0.00,,,0.00,Wunderground v.1.15,2013-04-02 05:02:00,
2013-04-02 00:04:00,22.4,19.1,30.27,NNW,332,0.0,18.0,87,0.00,,,0.00,Wunderground v.1.15,2013-04-02 05:04:00,
2013-04-02 00:08:00,22.1,18.8,30.27,NNW,332,0.0,18.0,87,0.00,,,0.00,Wunderground v.1.15,2013-04-02 05:08:00,
2013-04-02 00:12:00,21.9,18.6,30.27,NNW,332,0.0,0.0,87,0.00,,,0.00,Wunderground v.1.15,2013-04-02 05:12:00,
2013-04-02 00:14:00,21.8,18.5,30.27,NNW,332,0.0,0.0,87,0.00,,,0.00,Wunderground v.1.15,2013-04-02 05:14:00,
2013-04-02 00:18:00,21.9,19.2,30.27,NNW,333,0.0,1.0,89,0.00,,,0.00,Wunderground v.1.15,2013-04-02 05:18:00,
2013-04-02 00:20:00,22.0,19.3,30.27,NNW,333,1.0,1.0,89,0.00,,,0.00,Wunderground v.1.15,2013-04-02 05:20:00,
2013-04-02 00:22:00,22.2,19.7,30.27,NNW,333,1.0,1.0,90,0.00,,,0.00,Wunderground v.1.15,2013-04-02 05:22:00,
2013-04-02 00:26:00,22.4,19.9,30.27,NNW,333,1.0,1.0,90,0.00,,,0.00,Wunderground v.1.15,2013-04-02 05:26:00,
2013-04-02 00:28:00,22.3,19.8,30.27,NNW,333,1.0,1.0,90,0.00,,,0.00,Wunderground v.1.15,2013-04-02 05:28:00,
2013-04-02 00:34:00,22.1,19.4,30.27,NNW,333,0.0,0.0,89,0.00,,,0.00,Wunderground v.1.15,2013-04-02 05:34:00,
2013-04-02 00:36:00,22.0,19.3,30.27,NNW,333,0.0,0.0,89,0.00,,,0.00,Wunderground v.1.15,2013-04-02 05:36:00,
2013-04-02 00:40:00,21.8,19.3,30.28,NNW,333,0.0,0.0,90,0.00,,,0.00,Wunderground v.1.15,2013-04-02 05:40:00,
2013-04-02 00:42:00,21.8,19.3,30.28,NNW,333,0.0,0.0,90,0.00,,,0.00,Wunderground v.1.15,2013-04-02 05:42:00,
2013-04-02 00:44:00,21.7,19.2,30.28,NNW,333,0.0,0.0,90,0.00,,,0.00,Wunderground v.1.15,2013-04-02 05:44:00,
2013-04-02 00:46:00,21.7,19.2,30.28,NNW,333,0.0,0.0,90,0.00,,,0.00,Wunderground v.1.15,2013-04-02 05:46:00,
2013-04-02 00:52:00,21.4,19.2,30.28,WNW,300,0.0,1.0,91,0.00,,,0.00,Wunderground v.1.15,2013-04-02 05:52:00,
2013-04-02 00:54:00,21.4,19.2,30.28,WSW,248,0.0,1.0,91,0.00,,,0.00,Wunderground v.1.15,2013-04-02 05:54:00,
2013-04-02 00:58:00,21.2,18.7,30.28,WSW,248,0.0,1.0,90,0.00,,,0.00,Wunderground v.1.15,2013-04-02 05:58:00,
2013-04-02 01:00:00,21.2,19.0,30.28,WSW,248,0.0,0.0,91,0.00,,,0.00,Wunderground v.1.15,2013-04-02 06:00:00,
2013-04-02 01:02:00,21.1,18.6,30.28,WSW,248,0.0,1.0,90,0.00,,,0.00,Wunderground v.1.15,2013-04-02 06:02:00,
2013-04-02 01:08:00,21.1,19.1,30.28,WSW,248,0.0,1.0,92,0.00,,,0.00,Wunderground v.1.15,2013-04-02 06:08:00,
2013-04-02 01:10:00,21.2,19.2,30.28,WSW,248,0.0,1.0,92,0.00,,,0.00,Wunderground v.1.15,2013-04-02 06:10:00,
2013-04-02 01:12:00,21.3,19.3,30.28,WSW,248,0.0,1.0,92,0.00,,,0.00,Wunderground v.1.15,2013-04-02 06:12:00,
2013-04-02 01:18:00,21.9,19.9,30.28,WSW,248,0.0,1.0,92,0.00,,,0.00,Wunderground v.1.15,2013-04-02 06:18:00,
2013-04-02 01:20:00,22.0,20.0,30.28,WSW,248,0.0,1.0,92,0.00,,,0.00,Wunderground v.1.15,2013-04-02 06:20:00,
2013-04-02 01:28:00,22.3,20.1,30.28,WSW,248,0.0,1.0,91,0.00,,,0.00,Wunderground v.1.15,2013-04-02 06:28:00,
2013-04-02 01:32:00,22.3,20.1,30.29,WSW,248,0.0,1.0,91,0.00,,,0.00,Wunderground v.1.15,2013-04-02 06:32:00,
2013-04-02 01:34:00,22.1,19.9,30.28,WSW,248,0.0,1.0,91,0.00,,,0.00,Wunderground v.1.15,2013-04-02 06:34:00,
2013-04-02 01:36:00,22.0,19.8,30.29,WSW,248,0.0,1.0,91,0.00,,,0.00,Wunderground v.1.15,2013-04-02 06:36:00,
2013-04-02 01:38:00,21.9,19.7,30.29,WSW,248,0.0,1.0,91,0.00,,,0.00,Wunderground v.1.15,2013-04-02 06:38:00,
2013-04-02 01:42:00,21.7,19.5,30.28,WSW,248,0.0,1.0,91,0.00,,,0.00,Wunderground v.1.15,2013-04-02 06:42:00,
2013-04-02 01:44:00,21.7,19.5,30.29,WSW,248,0.0,1.0,91,0.00,,,0.00,Wunderground v.1.15,2013-04-02 06:44:00,
2013-04-02 01:46:00,21.6,19.4,30.28,WSW,249,0.0,1.0,91,0.00,,,0.00,Wunderground v.1.15,2013-04-02 06:46:00,
2013-04-02 01:49:00,21.5,19.3,30.29,WSW,249,0.0,1.0,91,0.00,,,0.00,Wunderground v.1.15,2013-04-02 06:49:00,
2013-04-02 01:52:00,21.4,19.2,30.29,WSW,248,0.0,1.0,91,0.00,,,0.00,Wunderground v.1.15,2013-04-02 06:52:00,
2013-04-02 01:56:00,21.2,18.7,30.29,WSW,248,0.0,1.0,90,0.00,,,0.00,Wunderground v.1.15,2013-04-02 06:56:00,
2013-04-02 01:58:00,21.1,18.6,30.29,WSW,248,0.0,1.0,90,0.00,,,0.00,Wunderground v.1.15,2013-04-02 06:58:00,
2013-04-02 02:00:00,21.1,18.9,30.29,WSW,248,0.0,1.0,91,0.00,,,0.00,Wunderground v.1.15,2013-04-02 07:00:00,
2013-04-02 02:04:00,20.9,18.7,30.29,WSW,249,0.0,1.0,91,0.00,,,0.00,Wunderground v.1.15,2013-04-02 07:04:00,
2013-04-02 02:10:00,20.9,18.7,30.29,WSW,249,0.0,1.0,91,0.00,,,0.00,Wunderground v.1.15,2013-04-02 07:10:00,
2013-04-02 02:14:00,20.8,18.6,30.29,WSW,248,0.0,1.0,91,0.00,,,0.00,Wunderground v.1.15,2013-04-02 07:14:00,
2013-04-02 02:20:00,20.8,18.6,30.29,WSW,248,0.0,1.0,91,0.00,,,0.00,Wunderground v.1.15,2013-04-02 07:20:00,
2013-04-02 02:22:00,20.7,18.5,30.29,WSW,248,0.0,1.0,91,0.00,,,0.00,Wunderground v.1.15,2013-04-02 07:22:00,
2013-04-02 02:24:00,20.5,18.3,30.29,WSW,248,0.0,1.0,91,0.00,,,0.00,Wunderground v.1.15,2013-04-02 07:24:00,
2013-04-02 02:26:00,20.4,18.2,30.29,WSW,248,0.0,1.0,91,0.00,,,0.00,Wunderground v.1.15,2013-04-02 07:26:00,
2013-04-02 02:28:00,20.2,18.0,30.29,WSW,248,0.0,1.0,91,0.00,,,0.00,Wunderground v.1.15,2013-04-02 07:28:00,
2013-04-02 02:31:00,20.0,18.1,30.29,WSW,248,0.0,1.0,92,0.00,,,0.00,Wunderground v.1.15,2013-04-02 07:31:00,
2013-04-02 02:33:00,20.0,18.1,30.29,WSW,248,0.0,1.0,92,0.00,,,0.00,Wunderground v.1.15,2013-04-02 07:33:00,
2013-04-02 02:35:00,20.1,18.4,30.29,WSW,248,0.0,1.0,93,0.00,,,0.00,Wunderground v.1.15,2013-04-02 07:35:00,
2013-04-02 02:38:00,20.1,18.1,30.28,WSW,248,0.0,1.0,92,0.00,,,0.00,Wunderground v.1.15,2013-04-02 07:38:00,
2013-04-02 02:42:00,20.0,18.1,30.28,WSW,248,0.0,1.0,92,0.00,,,0.00,Wunderground v.1.15,2013-04-02 07:42:00,
2013-04-02 02:46:00,20.0,18.1,30.29,WSW,248,0.0,1.0,92,0.00,,,0.00,Wunderground v.1.15,2013-04-02 07:46:00,
2013-04-02 02:47:00,20.1,18.4,30.28,WSW,248,0.0,1.0,93,0.00,,,0.00,Wunderground v.1.15,2013-04-02 07:47:00,
2013-04-02 02:50:00,20.1,18.4,30.28,WSW,248,0.0,1.0,93,0.00,,,0.00,Wunderground v.1.15,2013-04-02 07:50:00,
2013-04-02 02:54:00,20.1,18.4,30.28,WSW,248,0.0,1.0,93,0.00,,,0.00,Wunderground v.1.15,2013-04-02 07:54:00,
2013-04-02 02:56:00,20.1,18.4,30.28,WSW,248,0.0,1.0,93,0.00,,,0.00,Wunderground v.1.15,2013-04-02 07:56:00,
2013-04-02 03:00:00,20.0,18.3,30.28,WSW,248,0.0,1.0,93,0.00,,,0.00,Wunderground v.1.15,2013-04-02 08:00:00,
2013-04-02 03:02:00,20.1,18.1,30.28,WSW,248,0.0,1.0,92,0.00,,,0.00,Wunderground v.1.15,2013-04-02 08:02:00,
2013-04-02 03:08:00,20.0,18.1,30.28,WSW,248,0.0,1.0,92,0.00,,,0.00,Wunderground v.1.15,2013-04-02 08:08:00,
2013-04-02 03:10:00,20.0,18.1,30.28,WSW,248,0.0,1.0,92,0.00,,,0.00,Wunderground v.1.15,2013-04-02 08:10:00,
2013-04-02 03:12:00,19.9,18.0,30.28,WSW,248,0.0,1.0,92,0.00,,,0.00,Wunderground v.1.15,2013-04-02 08:12:00,
2013-04-02 03:14:00,19.8,17.9,30.28,WSW,248,0.0,1.0,92,0.00,,,0.00,Wunderground v.1.15,2013-04-02 08:14:00,
2013-04-02 03:20:00,19.5,17.8,30.28,WSW,247,0.0,1.0,93,0.00,,,0.00,Wunderground v.1.15,2013-04-02 08:20:00,
2013-04-02 03:24:00,19.5,17.8,30.28,WSW,248,0.0,1.0,93,0.00,,,0.00,Wunderground v.1.15,2013-04-02 08:24:00,
2013-04-02 03:26:00,19.5,17.8,30.28,WSW,248,0.0,1.0,93,0.00,,,0.00,Wunderground v.1.15,2013-04-02 08:26:00,
2013-04-02 03:30:00,19.4,17.7,30.28,WSW,248,0.0,1.0,93,0.00,,,0.00,Wunderground v.1.15,2013-04-02 08:30:00,
2013-04-02 03:34:00,19.3,17.6,30.28,WSW,248,0.0,1.0,93,0.00,,,0.00,Wunderground v.1.15,2013-04-02 08:34:00,
2013-04-02 03:36:00,19.6,18.2,30.28,WSW,248,0.0,1.0,94,0.00,,,0.00,Wunderground v.1.15,2013-04-02 08:36:00,
2013-04-02 03:38:00,19.7,18.3,30.28,WSW,248,0.0,1.0,94,0.00,,,0.00,Wunderground v.1.15,2013-04-02 08:38:00,
2013-04-02 03:40:00,20.0,18.6,30.28,WSW,247,0.0,1.0,94,0.00,,,0.00,Wunderground v.1.15,2013-04-02 08:40:00,
2013-04-02 03:42:00,20.1,18.7,30.28,WSW,248,0.0,1.0,94,0.00,,,0.00,Wunderground v.1.15,2013-04-02 08:42:00,
2013-04-02 03:46:00,20.2,18.5,30.28,WSW,248,0.0,1.0,93,0.00,,,0.00,Wunderground v.1.15,2013-04-02 08:46:00,
2013-04-02 03:50:00,20.2,18.5,30.28,WSW,248,0.0,1.0,93,0.00,,,0.00,Wunderground v.1.15,2013-04-02 08:50:00,
2013-04-02 03:56:00,20.2,18.2,30.28,WSW,248,0.0,1.0,92,0.00,,,0.00,Wunderground v.1.15,2013-04-02 08:56:00,
2013-04-02 03:58:00,20.2,18.2,30.28,WSW,248,0.0,1.0,92,0.00,,,0.00,Wunderground v.1.15,2013-04-02 08:58:00,
2013-04-02 04:00:00,20.1,18.1,30.28,WSW,248,0.0,1.0,92,0.00,,,0.00,Wunderground v.1.15,2013-04-02 09:00:00,
2013-04-02 04:08:00,19.6,17.7,30.28,WSW,247,0.0,1.0,92,0.00,,,0.00,Wunderground v.1.15,2013-04-02 09:08:00,
2013-04-02 04:10:00,19.4,17.5,30.28,WSW,248,0.0,1.0,92,0.00,,,0.00,Wunderground v.1.15,2013-04-02 09:10:00,
2013-04-02 04:14:00,19.4,17.7,30.28,WSW,248,0.0,1.0,93,0.00,,,0.00,Wunderground v.1.15,2013-04-02 09:14:00,
2013-04-02 04:20:00,19.6,17.9,30.27,WSW,248,0.0,1.0,93,0.00,,,0.00,Wunderground v.1.15,2013-04-02 09:20:00,
2013-04-02 04:24:00,19.4,17.7,30.27,WSW,248,0.0,1.0,93,0.00,,,0.00,Wunderground v.1.15,2013-04-02 09:24:00,
2013-04-02 04:28:00,19.4,17.7,30.27,WSW,248,0.0,1.0,93,0.00,,,0.00,Wunderground v.1.15,2013-04-02 09:28:00,
2013-04-02 04:30:00,19.6,17.9,30.27,WSW,248,0.0,1.0,93,0.00,,,0.00,Wunderground v.1.15,2013-04-02 09:30:00,
2013-04-02 04:34:00,19.7,18.0,30.28,WSW,248,0.0,1.0,93,0.00,,,0.00,Wunderground v.1.15,2013-04-02 09:34:00,
2013-04-02 04:35:00,19.7,18.0,30.28,WSW,247,0.0,1.0,93,0.00,,,0.00,Wunderground v.1.15,2013-04-02 09:35:00,
2013-04-02 04:38:00,19.6,17.9,30.28,WSW,248,0.0,1.0,93,0.00,,,0.00,Wunderground v.1.15,2013-04-02 09:38:00,
2013-04-02 04:42:00,19.6,17.9,30.28,WSW,248,0.0,1.0,93,0.00,,,0.00,Wunderground v.1.15,2013-04-02 09:42:00,
2013-04-02 04:48:00,19.3,17.6,30.28,WSW,248,0.0,1.0,93,0.00,,,0.00,Wunderground v.1.15,2013-04-02 09:48:00,
2013-04-02 04:50:00,19.3,17.6,30.28,WSW,248,0.0,1.0,93,0.00,,,0.00,Wunderground v.1.15,2013-04-02 09:50:00,
2013-04-02 06:14:00,18.1,16.7,30.30,SW,228,1.0,1.0,94,0.00,,,0.00,Wunderground v.1.15,2013-04-02 11:14:00,
2013-04-02 06:20:00,17.7,16.3,30.30,SSW,211,1.0,1.0,94,0.00,,,0.00,Wunderground v.1.15,2013-04-02 11:20:00,
2013-04-02 06:25:00,17.8,16.6,30.30,SW,215,1.0,1.0,95,0.00,,,0.00,Wunderground v.1.15,2013-04-02 11:25:00,
2013-04-02 06:27:00,17.9,16.7,30.30,SW,215,1.0,1.0,95,0.00,,,0.00,Wunderground v.1.15,2013-04-02 11:27:00,
2013-04-02 06:30:00,18.1,16.9,30.30,SW,226,1.0,1.0,95,0.00,,,0.00,Wunderground v.1.15,2013-04-02 11:30:00,
2013-04-02 06:34:00,18.4,17.2,30.30,SW,235,1.0,1.0,95,0.00,,,0.00,Wunderground v.1.15,2013-04-02 11:34:00,
2013-04-02 06:36:00,18.5,17.3,30.30,SW,235,1.0,1.0,95,0.00,,,0.00,Wunderground v.1.15,2013-04-02 11:36:00,
2013-04-02 06:38:00,18.5,17.3,30.30,SW,233,1.0,1.0,95,0.00,,,0.00,Wunderground v.1.15,2013-04-02 11:38:00,
2013-04-02 06:42:00,18.6,17.4,30.30,SW,226,1.0,1.0,95,0.00,,,0.00,Wunderground v.1.15,2013-04-02 11:42:00,
2013-04-02 06:44:00,18.7,17.5,30.30,SW,226,1.0,1.0,95,0.00,,,0.00,Wunderground v.1.15,2013-04-02 11:44:00,
2013-04-02 06:46:00,18.6,17.4,30.30,SW,231,1.0,1.0,95,0.00,,,0.00,Wunderground v.1.15,2013-04-02 11:46:00,
2013-04-02 06:50:00,18.7,17.5,30.30,SW,231,1.0,1.0,95,0.00,,,0.00,Wunderground v.1.15,2013-04-02 11:50:00,
2013-04-02 06:51:00,18.7,17.3,30.30,SW,231,1.0,1.0,94,0.00,,,0.00,Wunderground v.1.15,2013-04-02 11:51:00,
2013-04-02 06:54:00,18.6,17.2,30.30,SW,231,1.0,1.0,94,0.00,,,0.00,Wunderground v.1.15,2013-04-02 11:54:00,
2013-04-02 07:00:00,18.3,16.9,30.31,SW,231,0.0,1.0,94,0.00,,,0.00,Wunderground v.1.15,2013-04-02 12:00:00,
2013-04-02 07:02:00,18.2,16.8,30.31,SW,231,0.0,1.0,94,0.00,,,0.00,Wunderground v.1.15,2013-04-02 12:02:00,
2013-04-02 07:06:00,18.0,16.6,30.31,SW,231,1.0,1.0,94,0.00,,,0.00,Wunderground v.1.15,2013-04-02 12:06:00,
2013-04-02 07:08:00,17.9,16.5,30.31,SW,231,1.0,1.0,94,0.00,,,0.00,Wunderground v.1.15,2013-04-02 12:08:00,
2013-04-02 07:13:00,17.9,16.5,30.31,SW,230,0.0,1.0,94,0.00,,,0.00,Wunderground v.1.15,2013-04-02 12:13:00,
2013-04-02 07:15:00,18.1,16.9,30.31,SW,231,0.0,1.0,95,0.00,,,0.00,Wunderground v.1.15,2013-04-02 12:15:00,
2013-04-02 07:20:00,18.4,17.2,30.31,West,268,1.0,1.0,95,0.00,,,0.00,Wunderground v.1.15,2013-04-02 12:20:00,
2013-04-02 07:22:00,18.6,17.4,30.31,West,269,1.0,1.0,95,0.00,,,0.00,Wunderground v.1.15,2013-04-02 12:22:00,
2013-04-02 07:24:00,18.7,17.5,30.31,West,268,1.0,1.0,95,0.00,,,0.00,Wunderground v.1.15,2013-04-02 12:24:00,
2013-04-02 07:26:00,18.8,17.6,30.31,West,269,1.0,1.0,95,0.00,,,0.00,Wunderground v.1.15,2013-04-02 12:26:00,
2013-04-02 07:30:00,18.9,17.7,30.32,West,268,1.0,1.0,95,0.00,,,0.00,Wunderground v.1.15,2013-04-02 12:30:00,
2013-04-02 07:34:00,19.0,17.8,30.31,West,268,0.0,1.0,95,0.00,,,0.00,Wunderground v.1.15,2013-04-02 12:34:00,
2013-04-02 07:38:00,19.1,17.9,30.32,West,269,0.0,1.0,95,0.00,,,0.00,Wunderground v.1.15,2013-04-02 12:38:00,
2013-04-02 07:40:00,19.2,18.0,30.32,West,269,0.0,1.0,95,0.00,,,0.00,Wunderground v.1.15,2013-04-02 12:40:00,
2013-04-02 07:42:00,19.3,18.1,30.32,West,269,0.0,1.0,95,0.00,,,0.00,Wunderground v.1.15,2013-04-02 12:42:00,
2013-04-02 07:46:00,19.7,18.7,30.32,West,268,0.0,1.0,96,0.00,,,0.00,Wunderground v.1.15,2013-04-02 12:46:00,
2013-04-02 07:48:00,19.9,18.9,30.32,West,269,0.0,1.0,96,0.00,,,0.00,Wunderground v.1.15,2013-04-02 12:48:00,
2013-04-02 07:50:00,20.1,19.1,30.32,West,268,0.0,1.0,96,0.00,,,0.00,Wunderground v.1.15,2013-04-02 12:50:00,
2013-04-02 07:52:00,20.2,19.2,30.32,West,269,0.0,1.0,96,0.00,,,0.00,Wunderground v.1.15,2013-04-02 12:52:00,
2013-04-02 07:56:00,20.5,19.5,30.32,West,269,0.0,1.0,96,0.00,,,0.00,Wunderground v.1.15,2013-04-02 12:56:00,
2013-04-02 07:58:00,20.7,19.7,30.32,West,269,0.0,1.0,96,0.00,,,0.00,Wunderground v.1.15,2013-04-02 12:58:00,
2013-04-02 08:00:00,20.9,19.9,30.32,West,268,0.0,1.0,96,0.00,,,0.00,Wunderground v.1.15,2013-04-02 13:00:00,
2013-04-02 08:02:00,21.0,20.0,30.32,West,263,0.0,1.0,96,0.00,,,0.00,Wunderground v.1.15,2013-04-02 13:02:00,
2013-04-02 08:04:00,21.2,20.2,30.32,West,264,0.0,1.0,96,0.00,,,0.00,Wunderground v.1.15,2013-04-02 13:04:00,
2013-04-02 08:05:00,21.3,20.3,30.32,West,264,0.0,1.0,96,0.00,,,0.00,Wunderground v.1.15,2013-04-02 13:05:00,
2013-04-02 08:10:00,21.6,20.6,30.33,West,264,0.0,1.0,96,0.00,,,0.00,Wunderground v.1.15,2013-04-02 13:10:00,
2013-04-02 08:12:00,21.7,20.7,30.33,West,264,0.0,1.0,96,0.00,,,0.00,Wunderground v.1.15,2013-04-02 13:12:00,
2013-04-02 08:18:00,22.1,21.1,30.33,WNW,288,0.0,1.0,96,0.00,,,0.00,Wunderground v.1.15,2013-04-02 13:18:00,
2013-04-02 08:23:00,22.5,21.3,30.33,WSW,242,0.0,1.0,95,0.00,,,0.00,Wunderground v.1.15,2013-04-02 13:23:00,
2013-04-02 08:28:00,22.8,21.6,30.33,WSW,238,0.0,1.0,95,0.00,,,0.00,Wunderground v.1.15,2013-04-02 13:28:00,
2013-04-02 08:32:00,23.1,21.6,30.33,West,269,0.0,1.0,94,0.00,,,0.00,Wunderground v.1.15,2013-04-02 13:32:00,
2013-04-02 08:34:00,23.1,21.6,30.33,West,267,0.0,1.0,94,0.00,,,0.00,Wunderground v.1.15,2013-04-02 13:34:00,
2013-04-02 08:36:00,23.2,21.5,30.33,West,267,0.0,1.0,93,0.00,,,0.00,Wunderground v.1.15,2013-04-02 13:36:00,
2013-04-02 08:39:00,23.4,21.7,30.33,West,269,0.0,1.0,93,0.00,,,0.00,Wunderground v.1.15,2013-04-02 13:39:00,
2013-04-02 08:41:00,23.4,21.7,30.33,West,269,0.0,1.0,93,0.00,,,0.00,Wunderground v.1.15,2013-04-02 13:41:00,
2013-04-02 08:46:00,23.6,21.9,30.33,West,268,0.0,1.0,93,0.00,,,0.00,Wunderground v.1.15,2013-04-02 13:46:00,
2013-04-02 08:47:00,23.7,22.0,30.33,West,269,0.0,1.0,93,0.00,,,0.00,Wunderground v.1.15,2013-04-02 13:47:00,
2013-04-02 08:49:00,23.8,21.8,30.33,West,264,0.0,1.0,92,0.00,,,0.00,Wunderground v.1.15,2013-04-02 13:49:00,
2013-04-02 08:56:00,24.4,22.7,30.33,SSE,156,0.0,1.0,93,0.00,,,0.00,Wunderground v.1.15,2013-04-02 13:56:00,
2013-04-02 08:58:00,24.7,23.0,30.33,SSE,155,0.0,1.0,93,0.00,,,0.00,Wunderground v.1.15,2013-04-02 13:58:00,
2013-04-02 09:04:00,25.6,23.9,30.33,SSE,148,0.0,1.0,93,0.00,,,0.00,Wunderground v.1.15,2013-04-02 14:04:00,
2013-04-02 09:06:00,25.9,24.2,30.33,SE,125,0.0,1.0,93,0.00,,,0.00,Wunderground v.1.15,2013-04-02 14:06:00,
2013-04-02 09:08:00,26.2,24.5,30.33,SE,139,0.0,1.0,93,0.00,,,0.00,Wunderground v.1.15,2013-04-02 14:08:00,
2013-04-02 09:14:00,26.9,24.9,30.33,SE,141,0.0,1.0,92,0.00,,,0.00,Wunderground v.1.15,2013-04-02 14:14:00,
2013-04-02 09:16:00,27.2,24.9,30.33,SE,143,0.0,1.0,91,0.00,,,0.00,Wunderground v.1.15,2013-04-02 14:16:00,
2013-04-02 09:19:00,27.5,25.0,30.33,SSE,150,1.0,1.0,90,0.00,,,0.00,Wunderground v.1.15,2013-04-02 14:19:00,
2013-04-02 09:22:00,27.6,25.1,30.33,SSE,156,1.0,1.0,90,0.00,,,0.00,Wunderground v.1.15,2013-04-02 14:22:00,
2013-04-02 09:24:00,27.8,25.0,30.33,SE,141,1.0,2.0,89,0.00,,,0.00,Wunderground v.1.15,2013-04-02 14:24:00,
2013-04-02 09:28:00,27.9,24.5,30.33,SE,136,1.0,2.0,87,0.00,,,0.00,Wunderground v.1.15,2013-04-02 14:28:00,
2013-04-02 09:30:00,27.9,24.3,30.33,SSE,150,1.0,2.0,86,0.00,,,0.00,Wunderground v.1.15,2013-04-02 14:30:00,
2013-04-02 09:32:00,27.9,24.3,30.33,SE,136,2.0,2.0,86,0.00,,,0.00,Wunderground v.1.15,2013-04-02 14:32:00,
2013-04-02 09:34:00,28.1,24.5,30.33,SE,138,2.0,2.0,86,0.00,,,0.00,Wunderground v.1.15,2013-04-02 14:34:00,
2013-04-02 09:40:00,28.5,24.6,30.33,SSE,152,1.0,1.0,85,0.00,,,0.00,Wunderground v.1.15,2013-04-02 14:40:00,
2013-04-02 09:42:00,28.7,24.8,30.33,SE,139,1.0,2.0,85,0.00,,,0.00,Wunderground v.1.15,2013-04-02 14:42:00,
2013-04-02 09:44:00,28.9,24.7,30.33,SE,139,1.0,2.0,84,0.00,,,0.00,Wunderground v.1.15,2013-04-02 14:44:00,
2013-04-02 09:48:00,29.2,24.4,30.33,ESE,105,1.0,2.0,82,0.00,,,0.00,Wunderground v.1.15,2013-04-02 14:48:00,
2013-04-02 09:52:00,29.6,25.4,30.33,NNE,31,1.0,3.0,84,0.00,,,0.00,Wunderground v.1.15,2013-04-02 14:52:00,
2013-04-02 09:53:00,29.6,24.8,30.33,NNE,30,1.0,3.0,82,0.00,,,0.00,Wunderground v.1.15,2013-04-02 14:53:00,
2013-04-02 09:58:00,29.3,24.2,30.33,NNE,29,2.0,3.0,81,0.00,,,0.00,Wunderground v.1.15,2013-04-02 14:58:00,
2013-04-02 10:00:00,29.2,24.1,30.33,NE,37,3.0,4.0,81,0.00,,,0.00,Wunderground v.1.15,2013-04-02 15:00:00,
2013-04-02 10:06:00,29.4,24.0,30.33,NNW,346,3.0,4.0,80,0.00,,,0.00,Wunderground v.1.15,2013-04-02 15:06:00,
2013-04-02 10:10:00,29.6,24.2,30.33,NNW,328,2.0,3.0,80,0.00,,,0.00,Wunderground v.1.15,2013-04-02 15:10:00,
2013-04-02 10:12:00,29.8,24.7,30.33,NE,38,2.0,3.0,81,0.00,,,0.00,Wunderground v.1.15,2013-04-02 15:12:00,
2013-04-02 10:15:00,30.0,24.3,30.33,ENE,60,3.0,7.0,79,0.00,,,0.00,Wunderground v.1.15,2013-04-02 15:15:00,
2013-04-02 10:17:00,30.1,24.1,30.33,NNE,32,3.0,7.0,78,0.00,,,0.00,Wunderground v.1.15,2013-04-02 15:17:00,
2013-04-02 10:24:00,30.4,24.4,30.33,NNE,33,4.0,4.0,78,0.00,,,0.00,Wunderground v.1.15,2013-04-02 15:24:00,
2013-04-02 10:28:00,30.8,25.1,30.33,NE,43,3.0,4.0,79,0.00,,,0.00,Wunderground v.1.15,2013-04-02 15:28:00,
2013-04-02 10:30:00,31.0,24.6,30.33,NNE,25,4.0,8.0,77,0.00,,,0.00,Wunderground v.1.15,2013-04-02 15:30:00,
2013-04-02 10:36:00,31.2,23.5,30.33,NE,51,5.0,8.0,73,0.00,,,0.00,Wunderground v.1.15,2013-04-02 15:36:00,
2013-04-02 10:38:00,31.2,23.5,30.33,North,8,4.0,8.0,73,0.00,,,0.00,Wunderground v.1.15,2013-04-02 15:38:00,
2013-04-02 10:42:00,31.6,23.9,30.33,NW,309,4.0,5.0,73,0.00,,,0.00,Wunderground v.1.15,2013-04-02 15:42:00,
2013-04-02 10:44:00,31.8,24.1,30.33,North,352,4.0,5.0,73,0.00,,,0.00,Wunderground v.1.15,2013-04-02 15:44:00,
2013-04-02 10:52:00,32.0,23.3,30.33,NNE,15,5.0,9.0,70,0.00,,,0.00,Wunderground v.1.15,2013-04-02 15:52:00,
2013-04-02 10:56:00,31.9,22.9,30.33,ENE,77,5.0,9.0,69,0.00,,,0.00,Wunderground v.1.15,2013-04-02 15:56:00,
2013-04-02 10:58:00,32.0,23.3,30.33,NE,43,5.0,9.0,70,0.00,,,0.00,Wunderground v.1.15,2013-04-02 15:58:00,
2013-04-02 11:00:00,32.2,24.5,30.33,NNE,21,4.0,9.0,73,0.00,,,0.00,Wunderground v.1.15,2013-04-02 16:00:00,
2013-04-02 11:04:00,32.4,24.4,30.33,NNE,19,4.0,9.0,72,0.00,,,0.00,Wunderground v.1.15,2013-04-02 16:04:00,
2013-04-02 11:06:00,32.4,24.0,30.34,NW,325,5.0,9.0,71,0.00,,,0.00,Wunderground v.1.15,2013-04-02 16:06:00,
2013-04-02 11:10:00,32.7,23.6,30.34,North,357,5.0,5.0,69,0.00,,,0.00,Wunderground v.1.15,2013-04-02 16:10:00,
2013-04-02 11:12:00,32.8,23.4,30.33,WNW,302,4.0,7.0,68,0.00,,,0.00,Wunderground v.1.15,2013-04-02 16:12:00,
2013-04-02 11:18:00,32.9,23.1,30.34,East,84,4.0,7.0,67,0.00,,,0.00,Wunderground v.1.15,2013-04-02 16:18:00,
2013-04-02 11:24:00,33.1,24.4,30.33,NNW,347,3.0,7.0,70,0.00,,,0.00,Wunderground v.1.15,2013-04-02 16:24:00,
2013-04-02 11:28:00,33.6,24.5,30.34,NNE,33,4.0,7.0,69,0.00,,,0.00,Wunderground v.1.15,2013-04-02 16:28:00,
2013-04-02 11:32:00,33.7,25.0,30.33,North,8,5.0,8.0,70,0.00,,,0.00,Wunderground v.1.15,2013-04-02 16:32:00,
2013-04-02 11:34:00,33.6,23.4,30.34,NW,310,5.0,8.0,66,0.00,,,0.00,Wunderground v.1.15,2013-04-02 16:34:00,
2013-04-02 11:37:00,33.6,23.1,30.33,West,270,4.0,8.0,65,0.00,,,0.00,Wunderground v.1.15,2013-04-02 16:37:00,
2013-04-02 11:40:00,33.6,22.7,30.33,SE,139,3.0,3.0,64,0.00,,,0.00,Wunderground v.1.15,2013-04-02 16:40:00,
2013-04-02 11:48:00,34.4,23.5,30.33,NNE,13,2.0,5.0,64,0.00,,,0.00,Wunderground v.1.15,2013-04-02 16:48:00,
2013-04-02 11:50:00,34.6,23.7,30.33,WNW,287,2.0,2.0,64,0.00,,,0.00,Wunderground v.1.15,2013-04-02 16:50:00,
2013-04-02 11:54:00,34.7,24.9,30.33,NE,43,3.0,7.0,67,0.00,,,0.00,Wunderground v.1.15,2013-04-02 16:54:00,
2013-04-02 12:00:00,34.8,25.0,30.33,NNE,33,3.0,3.0,67,0.00,,,0.00,Wunderground v.1.15,2013-04-02 17:00:00,
2013-04-02 12:02:00,34.6,25.1,30.33,NNE,25,4.0,9.0,68,0.00,,,0.00,Wunderground v.1.15,2013-04-02 17:02:00,
2013-04-02 12:08:00,34.7,23.8,30.33,NW,325,5.0,9.0,64,0.00,,,0.00,Wunderground v.1.15,2013-04-02 17:08:00,
2013-04-02 12:14:00,34.8,25.3,30.33,NNE,26,3.0,5.0,68,0.00,,,0.00,Wunderground v.1.15,2013-04-02 17:14:00,
2013-04-02 12:16:00,34.9,24.3,30.33,NNW,330,3.0,5.0,65,0.00,,,0.00,Wunderground v.1.15,2013-04-02 17:16:00,
2013-04-02 12:18:00,35.0,24.8,30.33,SE,145,3.0,5.0,66,0.00,,,0.00,Wunderground v.1.15,2013-04-02 17:18:00,
2013-04-02 12:20:00,35.2,24.2,30.33,ESE,112,3.0,3.0,64,0.00,,,0.00,Wunderground v.1.15,2013-04-02 17:20:00,
2013-04-02 12:24:00,35.7,25.4,30.33,NNW,340,3.0,4.0,66,0.00,,,0.00,Wunderground v.1.15,2013-04-02 17:24:00,
2013-04-02 12:26:00,36.0,25.4,30.33,ENE,63,3.0,4.0,65,0.00,,,0.00,Wunderground v.1.15,2013-04-02 17:26:00,
2013-04-02 12:28:00,36.1,24.7,30.33,NW,323,3.0,4.0,63,0.00,,,0.00,Wunderground v.1.15,2013-04-02 17:28:00,
2013-04-02 12:30:00,36.1,24.7,30.33,WNW,285,3.0,3.0,63,0.00,,,0.00,Wunderground v.1.15,2013-04-02 17:30:00,
2013-04-02 12:33:00,36.3,24.1,30.33,WNW,285,3.0,5.0,61,0.00,,,0.00,Wunderground v.1.15,2013-04-02 17:33:00,
2013-04-02 12:38:00,36.3,24.5,30.33,NW,312,4.0,5.0,62,0.00,,,0.00,Wunderground v.1.15,2013-04-02 17:38:00,
2013-04-02 12:42:00,36.3,25.3,30.32,WNW,297,4.0,5.0,64,0.00,,,0.00,Wunderground v.1.15,2013-04-02 17:42:00,
2013-04-02 12:44:00,36.5,25.1,30.33,WNW,282,4.0,5.0,63,0.00,,,0.00,Wunderground v.1.15,2013-04-02 17:44:00,
2013-04-02 12:48:00,36.5,24.7,30.32,WNW,302,4.0,8.0,62,0.00,,,0.00,Wunderground v.1.15,2013-04-02 17:48:00,
2013-04-02 12:50:00,36.5,24.3,30.32,WNW,293,4.0,5.0,61,0.00,,,0.00,Wunderground v.1.15,2013-04-02 17:50:00,
2013-04-02 12:52:00,36.5,23.9,30.32,West,278,4.0,5.0,60,0.00,,,0.00,Wunderground v.1.15,2013-04-02 17:52:00,
2013-04-02 12:56:00,36.5,23.5,30.32,WNW,302,4.0,8.0,59,0.00,,,0.00,Wunderground v.1.15,2013-04-02 17:56:00,
2013-04-02 13:02:00,36.7,24.5,30.32,NW,308,4.0,6.0,61,0.00,,,0.00,Wunderground v.1.15,2013-04-02 18:02:00,
2013-04-02 13:04:00,36.8,23.8,30.32,WSW,256,4.0,10.0,59,0.00,,,0.00,Wunderground v.1.15,2013-04-02 18:04:00,
2013-04-02 13:06:00,36.9,24.7,30.32,NW,323,4.0,10.0,61,0.00,,,0.00,Wunderground v.1.15,2013-04-02 18:06:00,
2013-04-02 13:10:00,37.6,26.9,30.32,WNW,290,5.0,10.0,65,0.00,,,0.00,Wunderground v.1.15,2013-04-02 18:10:00,
2013-04-02 13:14:00,37.5,25.7,30.32,WNW,285,6.0,10.0,62,0.00,,,0.00,Wunderground v.1.15,2013-04-02 18:14:00,
2013-04-02 13:16:00,37.3,23.9,30.32,West,275,6.0,10.0,58,0.00,,,0.00,Wunderground v.1.15,2013-04-02 18:16:00,
2013-04-02 13:18:00,37.2,24.6,30.31,WNW,284,6.0,10.0,60,0.00,,,0.00,Wunderground v.1.15,2013-04-02 18:18:00,
2013-04-02 13:20:00,37.4,25.6,30.31,WNW,295,6.0,10.0,62,0.00,,,0.00,Wunderground v.1.15,2013-04-02 18:20:00,
2013-04-02 13:22:00,37.5,24.9,30.31,NW,305,6.0,10.0,60,0.00,,,0.00,Wunderground v.1.15,2013-04-02 18:22:00,
2013-04-02 13:28:00,37.4,23.5,30.31,WNW,300,6.0,10.0,57,0.00,,,0.00,Wunderground v.1.15,2013-04-02 18:28:00,
2013-04-02 13:30:00,37.6,26.5,30.31,West,266,6.0,10.0,64,0.00,,,0.00,Wunderground v.1.15,2013-04-02 18:30:00,
2013-04-02 13:36:00,38.0,25.3,30.31,WNW,298,6.0,10.0,60,0.00,,,0.00,Wunderground v.1.15,2013-04-02 18:36:00,
2013-04-02 13:40:00,38.4,25.7,30.31,NW,315,6.0,10.0,60,0.00,,,0.00,Wunderground v.1.15,2013-04-02 18:40:00,
2013-04-02 13:48:00,38.7,26.0,30.31,WNW,282,6.0,10.0,60,0.00,,,0.00,Wunderground v.1.15,2013-04-02 18:48:00,
2013-04-02 13:50:00,38.7,25.2,30.31,WNW,284,6.0,10.0,58,0.00,,,0.00,Wunderground v.1.15,2013-04-02 18:50:00,
2013-04-02 13:54:00,38.8,24.4,30.31,West,280,7.0,10.0,56,0.00,,,0.00,Wunderground v.1.15,2013-04-02 18:54:00,
2013-04-02 13:56:00,38.5,24.1,30.31,WNW,288,6.0,10.0,56,0.00,,,0.00,Wunderground v.1.15,2013-04-02 18:56:00,
2013-04-02 13:58:00,38.8,27.3,30.31,NNE,18,6.0,12.0,63,0.00,,,0.00,Wunderground v.1.15,2013-04-02 18:58:00,
2013-04-02 14:04:00,39.4,27.1,30.31,NW,314,6.0,10.0,61,0.00,,,0.00,Wunderground v.1.15,2013-04-02 19:04:00,
2013-04-02 14:10:00,39.6,25.2,30.30,WNW,300,6.0,6.0,56,0.00,,,0.00,Wunderground v.1.15,2013-04-02 19:10:00,
2013-04-02 14:14:00,39.9,28.3,30.30,NNW,337,5.0,10.0,63,0.00,,,0.00,Wunderground v.1.15,2013-04-02 19:14:00,
2013-04-02 14:16:00,40.0,27.2,30.30,NW,321,5.0,10.0,60,0.00,,,0.00,Wunderground v.1.15,2013-04-02 19:16:00,
2013-04-02 14:20:00,39.7,25.3,30.30,NNW,344,6.0,6.0,56,0.00,,,0.00,Wunderground v.1.15,2013-04-02 19:20:00,
2013-04-02 14:24:00,39.8,24.9,30.30,West,263,7.0,10.0,55,0.00,,,0.00,Wunderground v.1.15,2013-04-02 19:24:00,
2013-04-02 14:28:00,40.1,26.5,30.30,North,352,6.0,10.0,58,0.00,,,0.00,Wunderground v.1.15,2013-04-02 19:28:00,
2013-04-02 14:30:00,40.3,26.7,30.30,NNW,342,6.0,6.0,58,0.00,,,0.00,Wunderground v.1.15,2013-04-02 19:30:00,
2013-04-02 14:34:00,40.9,26.8,30.29,North,352,6.0,12.0,57,0.00,,,0.00,Wunderground v.1.15,2013-04-02 19:34:00,
2013-04-02 14:40:00,40.7,26.2,30.30,NNW,328,8.0,8.0,56,0.00,,,0.00,Wunderground v.1.15,2013-04-02 19:40:00,
2013-04-02 14:46:00,40.8,26.3,30.30,NNW,333,8.0,11.0,56,0.00,,,0.00,Wunderground v.1.15,2013-04-02 19:46:00,
2013-04-02 14:50:00,40.9,26.8,30.29,NW,321,8.0,8.0,57,0.00,,,0.00,Wunderground v.1.15,2013-04-02 19:50:00,
2013-04-02 14:54:00,40.9,25.1,30.29,NW,309,8.0,10.0,53,0.00,,,0.00,Wunderground v.1.15,2013-04-02 19:54:00,
2013-04-02 14:56:00,40.7,24.9,30.29,NW,312,8.0,10.0,53,0.00,,,0.00,Wunderground v.1.15,2013-04-02 19:56:00,
2013-04-02 15:00:00,40.4,25.5,30.29,WNW,298,7.0,10.0,55,0.00,,,0.00,Wunderground v.1.15,2013-04-02 20:00:00,
2013-04-02 15:02:00,40.6,26.1,30.29,NW,311,7.0,10.0,56,0.00,,,0.00,Wunderground v.1.15,2013-04-02 20:02:00,
2013-04-02 15:04:00,40.8,26.7,30.29,NW,308,7.0,10.0,57,0.00,,,0.00,Wunderground v.1.15,2013-04-02 20:04:00,
2013-04-02 15:08:00,40.8,25.9,30.29,West,281,7.0,10.0,55,0.00,,,0.00,Wunderground v.1.15,2013-04-02 20:08:00,
2013-04-02 15:10:00,40.7,26.6,30.29,NE,40,7.0,12.0,57,0.00,,,0.00,Wunderground v.1.15,2013-04-02 20:10:00,
2013-04-02 15:12:00,40.9,26.8,30.29,NNW,333,7.0,12.0,57,0.00,,,0.00,Wunderground v.1.15,2013-04-02 20:12:00,
2013-04-02 15:14:00,40.9,26.0,30.29,North,10,7.0,12.0,55,0.00,,,0.00,Wunderground v.1.15,2013-04-02 20:14:00,
2013-04-02 15:18:00,40.8,26.3,30.29,NE,34,7.0,12.0,56,0.00,,,0.00,Wunderground v.1.15,2013-04-02 20:18:00,
2013-04-02 15:22:00,41.1,27.4,30.29,NW,316,8.0,10.0,58,0.00,,,0.00,Wunderground v.1.15,2013-04-02 20:22:00,
2013-04-02 15:24:00,41.3,26.8,30.29,WNW,291,8.0,10.0,56,0.00,,,0.00,Wunderground v.1.15,2013-04-02 20:24:00,
2013-04-02 15:28:00,41.3,25.9,30.28,West,276,8.0,10.0,54,0.00,,,0.00,Wunderground v.1.15,2013-04-02 20:28:00,
2013-04-02 15:34:00,40.8,25.9,30.28,North,4,8.0,10.0,55,0.00,,,0.00,Wunderground v.1.15,2013-04-02 20:34:00,
2013-04-02 15:36:00,40.6,25.7,30.29,NNW,345,8.0,10.0,55,0.00,,,0.00,Wunderground v.1.15,2013-04-02 20:36:00,
2013-04-02 15:38:00,40.5,26.0,30.29,North,360,8.0,10.0,56,0.00,,,0.00,Wunderground v.1.15,2013-04-02 20:38:00,
2013-04-02 15:40:00,40.3,25.0,30.29,North,352,8.0,8.0,54,0.00,,,0.00,Wunderground v.1.15,2013-04-02 20:40:00,
2013-04-02 15:42:00,40.0,24.2,30.29,North,10,8.0,10.0,53,0.00,,,0.00,Wunderground v.1.15,2013-04-02 20:42:00,
2013-04-02 15:46:00,40.1,26.1,30.29,NNE,28,5.0,10.0,57,0.00,,,0.00,Wunderground v.1.15,2013-04-02 20:46:00,
2013-04-02 15:48:00,40.4,26.4,30.29,NE,39,5.0,10.0,57,0.00,,,0.00,Wunderground v.1.15,2013-04-02 20:48:00,
2013-04-02 15:54:00,40.7,26.2,30.28,NW,321,6.0,10.0,56,0.00,,,0.00,Wunderground v.1.15,2013-04-02 20:54:00,
2013-04-02 15:58:00,41.0,26.5,30.28,NW,317,8.0,10.0,56,0.00,,,0.00,Wunderground v.1.15,2013-04-02 20:58:00,
2013-04-02 16:02:00,40.6,25.2,30.28,North,11,8.0,9.0,54,0.00,,,0.00,Wunderground v.1.15,2013-04-02 21:02:00,
2013-04-02 16:06:00,40.5,25.6,30.28,NNW,345,8.0,12.0,55,0.00,,,0.00,Wunderground v.1.15,2013-04-02 21:06:00,
2013-04-02 16:12:00,40.7,25.8,30.28,North,8,8.0,10.0,55,0.00,,,0.00,Wunderground v.1.15,2013-04-02 21:12:00,
2013-04-02 16:14:00,40.5,25.1,30.28,NNE,25,7.0,10.0,54,0.00,,,0.00,Wunderground v.1.15,2013-04-02 21:14:00,
2013-04-02 16:18:00,40.2,25.3,30.29,NNW,341,7.0,10.0,55,0.00,,,0.00,Wunderground v.1.15,2013-04-02 21:18:00,
2013-04-02 16:20:00,40.1,24.3,30.28,North,352,6.0,6.0,53,0.00,,,0.00,Wunderground v.1.15,2013-04-02 21:20:00,
2013-04-02 16:26:00,40.1,25.2,30.29,North,5,4.0,10.0,55,0.00,,,0.00,Wunderground v.1.15,2013-04-02 21:26:00,
2013-04-02 16:28:00,40.0,24.7,30.28,NNE,27,4.0,10.0,54,0.00,,,0.00,Wunderground v.1.15,2013-04-02 21:28:00,
2013-04-02 16:34:00,40.0,25.1,30.28,NNE,20,6.0,10.0,55,0.00,,,0.00,Wunderground v.1.15,2013-04-02 21:34:00,
2013-04-02 16:36:00,40.0,25.1,30.28,NNE,23,5.0,10.0,55,0.00,,,0.00,Wunderground v.1.15,2013-04-02 21:36:00,
2013-04-02 16:44:00,41.5,26.5,30.28,NNE,20,7.0,10.0,55,0.00,,,0.00,Wunderground v.1.15,2013-04-02 21:44:00,
2013-04-02 16:46:00,41.6,27.5,30.28,NNE,23,8.0,10.0,57,0.00,,,0.00,Wunderground v.1.15,2013-04-02 21:46:00,
2013-04-02 16:48:00,41.7,27.1,30.28,North,355,8.0,10.0,56,0.00,,,0.00,Wunderground v.1.15,2013-04-02 21:48:00,
2013-04-02 16:54:00,41.1,25.3,30.28,NNE,21,10.0,12.0,53,0.00,,,0.00,Wunderground v.1.15,2013-04-02 21:54:00,
2013-04-02 16:58:00,40.7,25.3,30.28,NE,37,9.0,12.0,54,0.00,,,0.00,Wunderground v.1.15,2013-04-02 21:58:00,
2013-04-02 17:00:00,40.8,25.4,30.28,NNE,20,8.0,8.0,54,0.00,,,0.00,Wunderground v.1.15,2013-04-02 22:00:00,
2013-04-02 17:05:00,41.5,26.5,30.28,NW,310,7.0,10.0,55,0.00,,,0.00,Wunderground v.1.15,2013-04-02 22:05:00,
2013-04-02 17:08:00,41.6,25.3,30.28,WNW,297,7.0,10.0,52,0.00,,,0.00,Wunderground v.1.15,2013-04-02 22:08:00,
2013-04-02 17:14:00,41.3,25.4,30.28,NNE,12,7.0,10.0,53,0.00,,,0.00,Wunderground v.1.15,2013-04-02 22:14:00,
2013-04-02 17:16:00,41.3,25.4,30.28,NNW,341,6.0,10.0,53,0.00,,,0.00,Wunderground v.1.15,2013-04-02 22:16:00,
2013-04-02 17:20:00,41.5,26.5,30.28,NE,43,7.0,7.0,55,0.00,,,0.00,Wunderground v.1.15,2013-04-02 22:20:00,
2013-04-02 17:22:00,41.6,26.2,30.28,NNE,28,6.0,10.0,54,0.00,,,0.00,Wunderground v.1.15,2013-04-02 22:22:00,
2013-04-02 17:24:00,41.7,26.3,30.28,NNE,13,6.0,14.0,54,0.00,,,0.00,Wunderground v.1.15,2013-04-02 22:24:00,
2013-04-02 17:28:00,42.1,26.2,30.28,NNW,335,7.0,14.0,53,0.00,,,0.00,Wunderground v.1.15,2013-04-02 22:28:00,
2013-04-02 17:32:00,42.1,26.2,30.28,NNW,342,8.0,10.0,53,0.00,,,0.00,Wunderground v.1.15,2013-04-02 22:32:00,
2013-04-02 17:34:00,41.9,25.1,30.28,NNW,329,8.0,10.0,51,0.00,,,0.00,Wunderground v.1.15,2013-04-02 22:34:00,
2013-04-02 17:40:00,41.5,27.4,30.28,NNE,16,8.0,10.0,57,0.00,,,0.00,Wunderground v.1.15,2013-04-02 22:40:00,
2013-04-02 17:42:00,41.3,26.3,30.28,North,10,9.0,10.0,55,0.00,,,0.00,Wunderground v.1.15,2013-04-02 22:42:00,
2013-04-02 17:44:00,41.1,26.6,30.28,North,8,9.0,10.0,56,0.00,,,0.00,Wunderground v.1.15,2013-04-02 22:44:00,
2013-04-02 17:48:00,41.0,26.1,30.28,North,3,10.0,10.0,55,0.00,,,0.00,Wunderground v.1.15,2013-04-02 22:48:00,
2013-04-02 17:50:00,41.1,27.0,30.27,NE,41,9.0,9.0,57,0.00,,,0.00,Wunderground v.1.15,2013-04-02 22:50:00,
2013-04-02 17:54:00,41.3,26.8,30.28,North,360,8.0,12.0,56,0.00,,,0.00,Wunderground v.1.15,2013-04-02 22:54:00,
2013-04-02 17:56:00,41.5,27.8,30.28,North,352,8.0,12.0,58,0.00,,,0.00,Wunderground v.1.15,2013-04-02 22:56:00,
2013-04-02 18:00:00,41.5,26.5,30.28,NNE,26,9.0,9.0,55,0.00,,,0.00,Wunderground v.1.15,2013-04-02 23:00:00,
2013-04-02 18:02:00,41.5,26.5,30.28,NNE,28,9.0,10.0,55,0.00,,,0.00,Wunderground v.1.15,2013-04-02 23:02:00,
2013-04-02 18:06:00,41.4,26.9,30.28,NNE,28,8.0,10.0,56,0.00,,,0.00,Wunderground v.1.15,2013-04-02 23:06:00,
2013-04-02 18:10:00,41.2,26.2,30.28,NNE,32,7.0,10.0,55,0.00,,,0.00,Wunderground v.1.15,2013-04-02 23:10:00,
2013-04-02 18:12:00,40.7,26.6,30.28,NE,49,8.0,10.0,57,0.00,,,0.00,Wunderground v.1.15,2013-04-02 23:12:00,
2013-04-02 18:14:00,40.4,26.4,30.28,ENE,73,7.0,10.0,57,0.00,,,0.00,Wunderground v.1.15,2013-04-02 23:14:00,
2013-04-02 18:20:00,39.7,26.9,30.28,ENE,63,7.0,7.0,60,0.00,,,0.00,Wunderground v.1.15,2013-04-02 23:20:00,
2013-04-02 18:22:00,39.6,26.0,30.28,ESE,122,6.0,10.0,58,0.00,,,0.00,Wunderground v.1.15,2013-04-02 23:22:00,
2013-04-02 18:26:00,39.5,26.3,30.28,East,91,5.0,10.0,59,0.00,,,0.00,Wunderground v.1.15,2013-04-02 23:26:00,
2013-04-02 18:32:00,39.4,26.2,30.28,NE,34,4.0,10.0,59,0.00,,,0.00,Wunderground v.1.15,2013-04-02 23:32:00,
2013-04-02 18:34:00,39.3,26.6,30.28,NE,51,5.0,10.0,60,0.00,,,0.00,Wunderground v.1.15,2013-04-02 23:34:00,
2013-04-02 18:38:00,39.1,26.4,30.29,NE,56,6.0,10.0,60,0.00,,,0.00,Wunderground v.1.15,2013-04-02 23:38:00,
2013-04-02 18:42:00,39.0,25.9,30.29,ENE,65,6.0,10.0,59,0.00,,,0.00,Wunderground v.1.15,2013-04-02 23:42:00,
2013-04-02 18:44:00,38.8,25.7,30.29,NE,43,7.0,10.0,59,0.00,,,0.00,Wunderground v.1.15,2013-04-02 23:44:00,
2013-04-02 18:48:00,38.7,26.0,30.28,NE,44,7.0,10.0,60,0.00,,,0.00,Wunderground v.1.15,2013-04-02 23:48:00,
2013-04-02 18:50:00,38.6,25.9,30.29,NE,56,6.0,6.0,60,0.00,,,0.00,Wunderground v.1.15,2013-04-02 23:50:00,
2013-04-02 18:56:00,38.5,25.8,30.29,NNE,28,6.0,10.0,60,0.00,,,0.00,Wunderground v.1.15,2013-04-02 23:56:00,
2013-04-02 18:58:00,38.5,25.8,30.29,NE,38,5.0,10.0,60,0.00,,,0.00,Wunderground v.1.15,2013-04-02 23:58:00,
2013-04-02 19:02:00,38.1,26.6,30.29,NNE,32,6.0,10.0,63,0.00,,,0.00,Wunderground v.1.15,2013-04-03 00:02:00,
2013-04-02 19:08:00,37.5,26.4,30.29,NE,50,7.0,10.0,64,0.00,,,0.00,Wunderground v.1.15,2013-04-03 00:08:00,
2013-04-02 19:12:00,37.3,26.6,30.29,NNE,25,6.0,10.0,65,0.00,,,0.00,Wunderground v.1.15,2013-04-03 00:12:00,
2013-04-02 19:14:00,37.2,26.5,30.29,NE,38,6.0,10.0,65,0.00,,,0.00,Wunderground v.1.15,2013-04-03 00:14:00,
2013-04-02 19:20:00,37.1,26.8,30.29,ENE,72,4.0,10.0,66,0.00,,,0.00,Wunderground v.1.15,2013-04-03 00:20:00,
2013-04-02 19:22:00,37.1,26.8,30.29,NE,55,4.0,10.0,66,0.00,,,0.00,Wunderground v.1.15,2013-04-03 00:22:00,
2013-04-02 19:28:00,36.7,26.4,30.29,ENE,68,3.0,10.0,66,0.00,,,0.00,Wunderground v.1.15,2013-04-03 00:28:00,
2013-04-02 19:34:00,36.1,26.2,30.29,ENE,60,4.0,10.0,67,0.00,,,0.00,Wunderground v.1.15,2013-04-03 00:34:00,
2013-04-02 19:36:00,35.9,26.0,30.29,NNE,26,4.0,10.0,67,0.00,,,0.00,Wunderground v.1.15,2013-04-03 00:36:00,
2013-04-02 19:38:00,35.7,26.2,30.29,NE,54,5.0,10.0,68,0.00,,,0.00,Wunderground v.1.15,2013-04-03 00:38:00,
2013-04-02 19:40:00,35.5,26.0,30.29,East,79,5.0,5.0,68,0.00,,,0.00,Wunderground v.1.15,2013-04-03 00:40:00,
2013-04-02 19:44:00,35.2,25.7,30.29,ENE,63,4.0,10.0,68,0.00,,,0.00,Wunderground v.1.15,2013-04-03 00:44:00,
2013-04-02 19:50:00,34.8,25.7,30.29,NE,44,3.0,10.0,69,0.00,,,0.00,Wunderground v.1.15,2013-04-03 00:50:00,
2013-04-02 19:52:00,34.7,25.6,30.29,NE,45,3.0,10.0,69,0.00,,,0.00,Wunderground v.1.15,2013-04-03 00:52:00,
2013-04-02 19:54:00,34.6,25.8,30.29,NE,42,3.0,10.0,70,0.00,,,0.00,Wunderground v.1.15,2013-04-03 00:54:00,
2013-04-02 19:58:00,34.3,25.9,30.29,ENE,60,2.0,10.0,71,0.00,,,0.00,Wunderground v.1.15,2013-04-03 00:58:00,
2013-04-02 20:00:00,34.3,25.9,30.29,East,91,2.0,2.0,71,0.00,,,0.00,Wunderground v.1.15,2013-04-03 01:00:00,
2013-04-02 20:02:00,34.1,26.0,30.29,ESE,122,2.0,10.0,72,0.00,,,0.00,Wunderground v.1.15,2013-04-03 01:02:00,
2013-04-02 20:03:00,34.0,25.9,30.29,ENE,63,2.0,10.0,72,0.00,,,0.00,Wunderground v.1.15,2013-04-03 01:03:00,
2013-04-02 20:08:00,33.7,26.0,30.29,NE,37,2.0,10.0,73,0.00,,,0.00,Wunderground v.1.15,2013-04-03 01:08:00,
2013-04-02 20:10:00,33.6,25.9,30.29,NE,56,2.0,2.0,73,0.00,,,0.00,Wunderground v.1.15,2013-04-03 01:10:00,
2013-04-02 20:14:00,33.4,26.0,30.29,East,91,2.0,10.0,74,0.00,,,0.00,Wunderground v.1.15,2013-04-03 01:14:00,
2013-04-02 20:18:00,33.3,25.9,30.29,NE,54,2.0,10.0,74,0.00,,,0.00,Wunderground v.1.15,2013-04-03 01:18:00,
2013-04-02 20:22:00,33.2,26.1,30.29,East,101,3.0,10.0,75,0.00,,,0.00,Wunderground v.1.15,2013-04-03 01:22:00,
2013-04-02 20:28:00,33.0,26.3,30.29,ENE,74,2.0,10.0,76,0.00,,,0.00,Wunderground v.1.15,2013-04-03 01:28:00,
2013-04-02 20:30:00,32.9,26.2,30.29,NE,37,2.0,2.0,76,0.00,,,0.00,Wunderground v.1.15,2013-04-03 01:30:00,
2013-04-02 20:32:00,32.8,26.4,30.29,ENE,68,1.0,10.0,77,0.00,,,0.00,Wunderground v.1.15,2013-04-03 01:32:00,
2013-04-02 20:34:00,32.7,26.3,30.29,ENE,77,1.0,10.0,77,0.00,,,0.00,Wunderground v.1.15,2013-04-03 01:34:00,
2013-04-02 20:38:00,32.6,26.2,30.29,ENE,58,2.0,10.0,77,0.00,,,0.00,Wunderground v.1.15,2013-04-03 01:38:00,
2013-04-02 20:44:00,32.4,26.0,30.29,ENE,65,3.0,10.0,77,0.00,,,0.00,Wunderground v.1.15,2013-04-03 01:44:00,
2013-04-02 20:48:00,32.2,25.8,30.30,East,79,2.0,10.0,77,0.00,,,0.00,Wunderground v.1.15,2013-04-03 01:48:00,
2013-04-02 20:52:00,32.2,25.5,30.30,NNE,32,3.0,10.0,76,0.00,,,0.00,Wunderground v.1.15,2013-04-03 01:52:00,
2013-04-02 20:58:00,32.3,25.6,30.30,ENE,59,3.0,10.0,76,0.00,,,0.00,Wunderground v.1.15,2013-04-03 01:58:00,
2013-04-02 20:59:00,32.3,25.6,30.30,ENE,62,3.0,10.0,76,0.00,,,0.00,Wunderground v.1.15,2013-04-03 01:59:00,
2013-04-02 21:04:00,32.3,25.3,30.30,ENE,64,3.0,10.0,75,0.00,,,0.00,Wunderground v.1.15,2013-04-03 02:04:00,
2013-04-02 21:12:00,32.0,25.3,30.30,ENE,74,3.0,10.0,76,0.00,,,0.00,Wunderground v.1.15,2013-04-03 02:12:00,
2013-04-02 21:16:00,31.9,25.2,30.31,NE,54,3.0,10.0,76,0.00,,,0.00,Wunderground v.1.15,2013-04-03 02:16:00,
2013-04-02 21:18:00,31.9,25.2,30.31,SE,135,3.0,10.0,76,0.00,,,0.00,Wunderground v.1.15,2013-04-03 02:18:00,
2013-04-02 21:22:00,31.8,25.1,30.31,SSE,147,3.0,10.0,76,0.00,,,0.00,Wunderground v.1.15,2013-04-03 02:22:00,
2013-04-02 21:24:00,31.8,25.1,30.31,ENE,68,3.0,10.0,76,0.00,,,0.00,Wunderground v.1.15,2013-04-03 02:24:00,
2013-04-02 21:26:00,31.8,25.1,30.31,NNE,21,3.0,10.0,76,0.00,,,0.00,Wunderground v.1.15,2013-04-03 02:26:00,
2013-04-02 21:32:00,31.7,25.6,30.31,SSE,157,2.0,10.0,78,0.00,,,0.00,Wunderground v.1.15,2013-04-03 02:32:00,
2013-04-02 21:34:00,31.6,25.5,30.31,ENE,74,2.0,10.0,78,0.00,,,0.00,Wunderground v.1.15,2013-04-03 02:34:00,
2013-04-02 21:38:00,31.3,25.5,30.31,West,281,1.0,10.0,79,0.00,,,0.00,Wunderground v.1.15,2013-04-03 02:38:00,
2013-04-02 21:42:00,31.0,25.6,30.31,NW,309,1.0,10.0,80,0.00,,,0.00,Wunderground v.1.15,2013-04-03 02:42:00,
2013-04-02 21:48:00,30.5,25.4,30.31,East,90,1.0,10.0,81,0.00,,,0.00,Wunderground v.1.15,2013-04-03 02:48:00,
2013-04-02 21:50:00,30.4,25.3,30.31,ENE,64,1.0,1.0,81,0.00,,,0.00,Wunderground v.1.15,2013-04-03 02:50:00,
2013-04-02 21:56:00,30.2,25.1,30.31,ESE,104,1.0,10.0,81,0.00,,,0.00,Wunderground v.1.15,2013-04-03 02:56:00,
2013-04-02 22:00:00,30.1,25.0,30.32,SE,145,2.0,2.0,81,0.00,,,0.00,Wunderground v.1.15,2013-04-03 03:00:00,
2013-04-02 22:02:00,30.1,25.0,30.32,SE,142,2.0,10.0,81,0.00,,,0.00,Wunderground v.1.15,2013-04-03 03:02:00,
2013-04-02 22:04:00,30.1,25.3,30.32,SE,132,1.0,10.0,82,0.00,,,0.00,Wunderground v.1.15,2013-04-03 03:04:00,
2013-04-02 22:08:00,30.0,25.2,30.32,SSW,210,1.0,10.0,82,0.00,,,0.00,Wunderground v.1.15,2013-04-03 03:08:00,
2013-04-02 22:09:00,29.9,25.1,30.32,North,6,0.0,10.0,82,0.00,,,0.00,Wunderground v.1.15,2013-04-03 03:09:00,
2013-04-02 22:12:00,29.8,25.0,30.32,NNE,27,0.0,10.0,82,0.00,,,0.00,Wunderground v.1.15,2013-04-03 03:12:00,
2013-04-02 22:17:00,29.5,24.7,30.32,SE,133,0.0,10.0,82,0.00,,,0.00,Wunderground v.1.15,2013-04-03 03:17:00,
2013-04-02 22:24:00,29.2,24.7,30.32,South,187,0.0,10.0,83,0.00,,,0.00,Wunderground v.1.15,2013-04-03 03:24:00,
2013-04-02 22:26:00,29.2,24.7,30.32,SSE,156,0.0,10.0,83,0.00,,,0.00,Wunderground v.1.15,2013-04-03 03:26:00,
2013-04-02 22:30:00,29.3,25.1,30.32,SSE,150,1.0,1.0,84,0.00,,,0.00,Wunderground v.1.15,2013-04-03 03:30:00,
2013-04-02 22:32:00,29.3,24.8,30.32,NE,49,1.0,10.0,83,0.00,,,0.00,Wunderground v.1.15,2013-04-03 03:32:00,
2013-04-02 22:38:00,29.2,24.7,30.32,East,84,0.0,10.0,83,0.00,,,0.00,Wunderground v.1.15,2013-04-03 03:38:00,
2013-04-02 22:40:00,29.2,24.7,30.32,East,91,0.0,10.0,83,0.00,,,0.00,Wunderground v.1.15,2013-04-03 03:40:00,
2013-04-02 22:46:00,29.0,24.5,30.32,ENE,65,0.0,10.0,83,0.00,,,0.00,Wunderground v.1.15,2013-04-03 03:46:00,
2013-04-02 22:48:00,29.0,24.5,30.32,ENE,63,0.0,10.0,83,0.00,,,0.00,Wunderground v.1.15,2013-04-03 03:48:00,
2013-04-02 22:53:00,28.8,24.3,30.32,ENE,64,1.0,10.0,83,0.00,,,0.00,Wunderground v.1.15,2013-04-03 03:53:00,
2013-04-02 22:55:00,28.7,24.2,30.32,East,98,1.0,10.0,83,0.00,,,0.00,Wunderground v.1.15,2013-04-03 03:55:00,
2013-04-02 22:58:00,28.7,24.2,30.32,ESE,110,1.0,10.0,83,0.00,,,0.00,Wunderground v.1.15,2013-04-03 03:58:00,
2013-04-02 23:00:00,28.6,24.1,30.32,ESE,112,1.0,1.0,83,0.00,,,0.00,Wunderground v.1.15,2013-04-03 04:00:00,
2013-04-02 23:02:00,28.6,24.1,30.32,ESE,113,1.0,10.0,83,0.00,,,0.00,Wunderground v.1.15,2013-04-03 04:02:00,
2013-04-02 23:08:00,28.4,24.2,30.32,ENE,67,1.0,10.0,84,0.00,,,0.00,Wunderground v.1.15,2013-04-03 04:08:00,
2013-04-02 23:12:00,28.3,24.1,30.32,ESE,105,1.0,10.0,84,0.00,,,0.00,Wunderground v.1.15,2013-04-03 04:12:00,
2013-04-02 23:14:00,28.3,24.1,30.32,ESE,122,1.0,10.0,84,0.00,,,0.00,Wunderground v.1.15,2013-04-03 04:14:00,
2013-04-02 23:20:00,28.3,24.1,30.32,ESE,123,0.0,10.0,84,0.00,,,0.00,Wunderground v.1.15,2013-04-03 04:20:00,
2013-04-02 23:22:00,28.2,24.3,30.32,ESE,105,0.0,10.0,85,0.00,,,0.00,Wunderground v.1.15,2013-04-03 04:22:00,
2013-04-02 23:26:00,28.2,24.3,30.32,East,81,0.0,10.0,85,0.00,,,0.00,Wunderground v.1.15,2013-04-03 04:26:00,
2013-04-02 23:30:00,28.1,24.2,30.32,SE,124,1.0,1.0,85,0.00,,,0.00,Wunderground v.1.15,2013-04-03 04:30:00,
2013-04-02 23:32:00,28.1,23.9,30.32,SE,124,1.0,10.0,84,0.00,,,0.00,Wunderground v.1.15,2013-04-03 04:32:00,
2013-04-02 23:36:00,28.2,24.3,30.32,SE,143,1.0,10.0,85,0.00,,,0.00,Wunderground v.1.15,2013-04-03 04:36:00,
2013-04-02 23:38:00,28.2,24.3,30.32,SSE,167,1.0,10.0,85,0.00,,,0.00,Wunderground v.1.15,2013-04-03 04:38:00,
2013-04-02 23:40:00,28.3,24.4,30.32,SW,225,1.0,10.0,85,0.00,,,0.00,Wunderground v.1.15,2013-04-03 04:40:00,
2013-04-02 23:44:00,28.3,24.6,30.32,NE,47,1.0,10.0,86,0.00,,,0.00,Wunderground v.1.15,2013-04-03 04:44:00,
2013-04-02 23:48:00,28.3,24.4,30.31,East,97,2.0,10.0,85,0.00,,,0.00,Wunderground v.1.15,2013-04-03 04:48:00,
2013-04-02 23:50:00,28.4,24.5,30.31,ENE,64,2.0,10.0,85,0.00,,,0.00,Wunderground v.1.15,2013-04-03 04:50:00,
2013-04-02 23:52:00,28.6,24.4,30.32,ESE,120,2.0,10.0,84,0.00,,,0.00,Wunderground v.1.15,2013-04-03 04:52:00,
2013-04-02 23:54:00,28.7,24.5,30.32,SE,139,2.0,10.0,84,0.00,,,0.00,Wunderground v.1.15,2013-04-03 04:54:00,
2013-04-02 23:56:00,28.7,24.5,30.32,SSE,162,2.0,10.0,84,0.00,,,0.00,Wunderground v.1.15,2013-04-03 04:56:00,